Weather History for Torrington, WY

Change the Weather History Date:

Tuesday, November 19, 2013

  Actual Average Record
Temperature  
Mean Temperature 42 °F 34 °F  
Max Temperature 60 °F 48 °F 76 °F (2007)
Min Temperature 23 °F 21 °F 8 °F (2001)
Degree Days  
Heating Degree Days 23 31  
Month to date heating degree days 469 506  
Since 1 July heating degree days 1171 1216  
Cooling Degree Days 0 0  
Month to date cooling degree days 0 0  
Year to date cooling degree days 893 678  
Moisture  
Dew Point 25 °F    
Average Humidity 52    
Maximum Humidity 75    
Minimum Humidity 28    
Precipitation  
Precipitation 0.00 in 0.01 in 0.05 in (2011)
Month to date precipitation 0.23 0.32  
Year to date precipitation 13.35 13.72  
Sea Level Pressure  
Sea Level Pressure 29.75 in    
Wind  
Wind Speed 11 mph (WSW)    
Max Wind Speed 25 mph    
Max Gust Speed 36 mph    
Visibility 10 miles    
Events      
T = Trace of Precipitation, MM = Missing Value Source: NWS Daily Summary

Daily Weather History Graph

Daily Weather History Graph

Search for Another Location

Airport:

Trip Planner

Search our weather history database for the weather conditions in past years. The results will help you decide how hot, cold, wet, or windy it might be!

Date:

Astronomy

Nov. 19, 2013 Rise Set
Actual Time 6:51 AM MST 4:31 PM MST
Civil Twilight 6:21 AM MST 5:02 PM MST
Nautical Twilight 5:47 AM MST 5:36 PM MST
Astronomical Twilight 5:14 AM MST 6:09 PM MST
Moon 6:24 PM MST (11/19) 8:33 AM MST (11/19)
Length of Visible Light 10h 40m
Length of Day
9h 39m
Waning Gibbous, 96% of the Moon is Illuminated
Nov 19
Waning Gibbous
Nov 25
Last Quarter
Dec 2
New
Dec 9
First Quarter
Dec 17
Full

Hourly Weather History & Observations

Time (MST) Temp. Windchill Dew Point Humidity Pressure Visibility Wind Dir Wind Speed Gust Speed Precip Events Conditions
12:53 AM 28.0 °F 20.0 °F 18.0 °F 66% 29.91 in 10.0 mi ESE 8.1 mph - N/A   Clear
1:53 AM 33.1 °F 25.5 °F 19.0 °F 56% 29.88 in 10.0 mi ESE 9.2 mph - N/A   Clear
2:53 AM 33.1 °F 25.5 °F 19.0 °F 56% 29.86 in 10.0 mi SE 9.2 mph - N/A   Clear
3:53 AM 30.9 °F 24.3 °F 19.0 °F 61% 29.84 in 10.0 mi ESE 6.9 mph - N/A   Clear
4:53 AM 27.0 °F 17.3 °F 19.0 °F 72% 29.83 in 10.0 mi East 10.4 mph - N/A   Clear
5:53 AM 26.1 °F - 18.0 °F 71% 29.83 in 10.0 mi Calm Calm - N/A   Clear
6:53 AM 27.0 °F 18.0 °F 19.0 °F 72% 29.82 in 10.0 mi East 9.2 mph - N/A   Clear
7:53 AM 30.9 °F 27.5 °F 21.9 °F 69% 29.81 in 10.0 mi East 3.5 mph - N/A   Clear
8:53 AM 37.9 °F 34.4 °F 21.9 °F 53% 29.80 in 10.0 mi ENE 4.6 mph - N/A   Clear
9:53 AM 45.0 °F 40.6 °F 21.9 °F 40% 29.77 in 10.0 mi WSW 8.1 mph - N/A   Clear
10:53 AM 55.0 °F - 25.0 °F 31% 29.73 in 10.0 mi West 10.4 mph - N/A   Clear
11:53 AM 57.0 °F - 26.1 °F 30% 29.67 in 10.0 mi WSW 19.6 mph 27.6 mph N/A   Clear
12:53 PM 60.1 °F - 28.0 °F 30% 29.66 in 10.0 mi WSW 18.4 mph 23.0 mph N/A   Clear
1:53 PM 59.0 °F - 27.0 °F 29% 29.63 in 10.0 mi West 23.0 mph 32.2 mph N/A   Clear
2:53 PM 57.0 °F - 28.0 °F 33% 29.64 in 10.0 mi WSW 19.6 mph 25.3 mph N/A   Partly Cloudy
3:53 PM 55.9 °F - 28.0 °F 34% 29.65 in 10.0 mi West 16.1 mph 31.1 mph N/A   Overcast
4:53 PM 54.0 °F - 30.0 °F 40% 29.68 in 10.0 mi West 16.1 mph 27.6 mph N/A   Scattered Clouds
5:53 PM 53.1 °F - 30.9 °F 43% 29.71 in 10.0 mi West 18.4 mph 24.2 mph N/A   Clear
6:53 PM 51.1 °F - 30.9 °F 46% 29.72 in 10.0 mi West 13.8 mph - N/A   Clear
7:53 PM 48.9 °F - 32.0 °F 52% 29.72 in 10.0 mi West 10.4 mph - N/A   Clear
8:53 PM 48.9 °F - 32.0 °F 52% 29.70 in 10.0 mi WNW 5.8 mph - N/A   Clear
9:53 PM 48.9 °F - 32.0 °F 52% 29.69 in 10.0 mi WNW 9.2 mph - N/A   Mostly Cloudy
10:53 PM 48.9 °F - 32.0 °F 52% 29.67 in 10.0 mi WNW 10.4 mph - N/A   Overcast
11:53 PM 48.9 °F - 30.9 °F 50% 29.67 in 10.0 mi West 10.4 mph - N/A   Partly Cloudy